User: anonymous   Login
Location: Gipe Farm
(40.9466°N, 95.5370°W)
Time: 00:10:59
(UTC-06:00)
Language:

Cosmos 2082 Rocket - Orbit

View from above orbital plane
View from above orbital plane
View from above satellite
View from above satellite

Ground track
Ground track

The orbit data is extracted from the following two-line orbital elements,

1 20625U 90046B   14332.45282207 -.00000163  00000-0 -60096-4 0  8768
2 20625 070.9992 304.5675 0011965 080.2226 064.6869 14.14547174266073
Epoch (UTC): 28 November 2014 10:52:03
Eccentricity: 0.0011965
inclination: 70.9992°
perigee height: 835 km
apogee height: 852 km
right ascension of ascending node: 304.5675°
argument of perigee: 80.2226°
revolutions per day: 14.14547174
mean anomaly at epoch: 64.6869°
orbit number at epoch: 26607

The dashed part of the orbit path shows where the satellite is in the earth's shadow,  

DLR